Zurück zum Katalog

COSMOS 2197

AktivMilitärPO
NORAD 22034·PAYLOAD·🇷🇺 Russia

Gestartet Jul 13, 1992 von Plesetsk Cosmodrome

Loading…

Nächste Überflüge (nächste 24 Stunden)

TLE

AktuellSource: Space-Track

Epoche: Sep 14, 2026, 04:47 UTC

1 22034U 92042A   26257.19978659  .00000034  00000-0  12729-3 0  9995
2 22034  82.5985 172.0722 0013919  71.9726  81.7077 12.64254212576531

Verfolge COSMOS 2197 in Echtzeit mit AllMySat

Download on the App Store